Showing default

ICEYE-X48, 63253

Orbit data source: Space-Track

ICEYE-X48, 63253 is a payload satellite owned by ICEYE US (US) in SSO that was launched on Sat, 15 Mar 2025 UTC via an FALCON 9 launch vehicle from the Air Force Western Test Range (AFWTR). Payload-class satellites include a variety of spacecraft equipped with specific instruments for various scientific and technological missions. These include communications satellites like Starlink; space stations such as the ISS; scientific satellites like the Hubble; Earth observation satellites from companies like Planet Labs, Umbra, and HawkEye 360; GPS; miniature CubeSats for education and research; and military/defense satellites.

Loading next visibility...
Identifier
63253, 2025-052AV
Orbit
SSO
Country
Flag of USUS
Related business
Manufacturer
ICEYE
Mission
Operational Commercial Radar Imaging
Bus & Motor
ICEYE, Unknown motor
Mass
80 kg wet, 80 kg dry
Launch date (UTC)
2025-03-15 (1 year ago)
Launch vehicle
FALCON 9
Launch site
Air Force Western Test Range (AFWTR)
Object type
Payload
Rocket body
Debris
Shape & HBR
Box + 1 Pan, 0.7 m
Radar Cross Section
0.776 m², Medium (>0.1 m² and < 1m²)

Expand to show TLE details & history
Last TLE update: 7 hours ago

TLE from 7 hours ago
0 ICEYE-X48
1 63253U 25052AV  26249.60617908  .00000837  00000-0  75130-4 0  9991
2 63253  97.6758 140.5212 0001468 349.4770  10.6422 14.98350889 80863
Epoch: 2026-09-06T14:32Z
TLE epoch observation values (Epoch: 2026-09-06T14:32:53.872Z)
Latitude
0.00001°
Longitude
-63.40215°
Altitude
574.041 km
Speed
7.574 km/s
True Right ascension
09h 22m 05s
True Declination
0° 00' 00"
Sunlit
Object was in daylight at epoch
Visualization orbit readout
Latitude
Unknown
Longitude
Unknown
Altitude
Unknown
Speed
Unknown
Apparent Right ascension
Unknown
Apparent Declination
Unknown
Sunlit
N/A
Visualization observer readout
Local Sidereal Time
13:10:54
Azimuth
Unknown
Elevation
Unknown
Doppler factor
Unknown
Orbital elements
Apogee altitude
570.018 km
Perigee altitude
567.978 km
Semi-major axis
6,947.135 km
Eccentricity
0.00015
Inclination
97.6758°
RAAN
140.5212°
Arg. of periapsis
349.477°
True anomaly
10.64531°
Mean anomaly
10.6422°
Eccentric anomaly
10.64375°
Mean motion
3.7483 °/min
Orbital period
96.04 mins
BSTAR
0.00007513
Loading maneuver chart data...
Computing Atmospheric mass density...
Loading historical data...
Loading historical data...
Loading historical data...
Loading historical data...
Loading historical data...
Loading historical data...
Loading historical data...

Documentation

Showing up to 5 results
|